Cozumel (Civ/Mil, Mexico

9:03 AM on February 26, 2017 (GMT +0000)
Cozumel International

Weather History for MMCZ - January, 2012

Change the Weather History Date:

Sunday, January 1, 2012

  Actual Average Record
Temperature  
Mean Temperature 73 °F -  
Max Temperature 78 °F 80 °F 86 °F (1999)
Min Temperature 68 °F 69 °F 62 °F (2015)
Cooling Degree Days 8    
Growing Degree Days 23 (Base 50)    
Moisture  
Dew Point 65 °F    
Average Humidity 75    
Maximum Humidity 88    
Minimum Humidity 65    
Precipitation  
Precipitation 0.00 in - - ()
Sea Level Pressure  
Sea Level Pressure 30.13 in    
Wind  
Wind Speed 8 mph ()    
Max Wind Speed 17 mph    
Max Gust Speed -    
Visibility 7.0 miles    
Events      
Averages and records for this station are not official NWS values.
T = Trace of Precipitation, MM = Missing Value Source: Averaged Metar Reports

Daily Weather History Graph

Daily Weather History Graph

Search for Another Location

Airport or City:

Trip Planner

Search our weather history database for the weather conditions in past years. The results will help you decide how hot, cold, wet, or windy it might be!

Date:

Astronomy

Jan. 01, 2012 Rise Set
Actual Time 6:23 AM CST 5:18 PM CST
Civil Twilight 5:59 AM CST 5:42 PM CST
Nautical Twilight 5:32 AM CST 6:10 PM CST
Astronomical Twilight 5:05 AM CST 6:37 PM CST
Moon 11:41 AM CST (1/1) No Moon Set
Length of Visible Light 11h 42m
Length of Day
10h 54m
First Quarter, 55% of the Moon is Illuminated
Jan 1
First Quarter
Jan 9
Full
Jan 16
Last Quarter
Jan 23
New
Jan 30
First Quarter

Hourly Weather History & Observations

Time (CST) Temp. Dew Point Humidity Pressure Visibility Wind Dir Wind Speed Gust Speed Precip Events Conditions
12:45 AM 68.0 °F 64.4 °F 88% 30.09 in 7.0 mi East 4.6 mph - N/A   Partly Cloudy
1:44 AM 68.0 °F 62.6 °F 83% 30.08 in 7.0 mi East 3.5 mph - N/A   Partly Cloudy
3:11 AM 68.0 °F 64.4 °F 88% 30.10 in 7.0 mi East 3.5 mph - N/A   Partly Cloudy
4:40 AM 69.8 °F 64.4 °F 83% 30.09 in 7.0 mi East 3.5 mph - N/A   Partly Cloudy
5:44 AM 69.8 °F 64.4 °F 83% 30.04 in 7.0 mi East 4.6 mph - N/A   Partly Cloudy
6:45 AM 71.6 °F 66.2 °F 83% 30.13 in 7.0 mi East 6.9 mph - N/A   Scattered Clouds
7:40 AM 73.4 °F 66.2 °F 78% 30.15 in 7.0 mi East 6.9 mph - N/A   Scattered Clouds
8:40 AM 75.2 °F 66.2 °F 73% 30.20 in 7.0 mi ENE 13.8 mph - N/A   Partly Cloudy
9:41 AM 77.0 °F 66.2 °F 69% 30.18 in 7.0 mi East 17.3 mph - N/A   Scattered Clouds
10:40 AM 77.0 °F 66.2 °F 69% 30.17 in 7.0 mi ENE 16.1 mph - N/A   Scattered Clouds
11:40 AM 78.8 °F 66.2 °F 65% 30.13 in 7.0 mi ENE 17.3 mph - N/A   Mostly Cloudy
12:41 PM 78.8 °F 66.2 °F 65% 30.12 in 7.0 mi ENE 17.3 mph - N/A   Mostly Cloudy
1:40 PM 77.0 °F 66.2 °F 69% 30.11 in 7.0 mi NE 17.3 mph - N/A   Mostly Cloudy
2:46 PM 75.2 °F 66.2 °F 73% 30.12 in 7.0 mi ENE 12.7 mph - N/A   Scattered Clouds
3:47 PM 75.2 °F 66.2 °F 73% 30.10 in 7.0 mi NE 9.2 mph - N/A   Scattered Clouds
4:48 PM 73.4 °F 66.2 °F 78% 30.12 in 7.0 mi NE 9.2 mph - N/A   Scattered Clouds
5:47 PM 73.4 °F 66.2 °F 78% 30.10 in 7.0 mi NE 10.4 mph - N/A   Scattered Clouds
6:41 PM 73.4 °F 64.4 °F 73% 30.15 in 7.0 mi NE 11.5 mph - N/A   Scattered Clouds
7:50 PM 73.4 °F 64.4 °F 73% 30.16 in 7.0 mi ENE 11.5 mph - N/A   Scattered Clouds
8:41 PM 73.4 °F 64.4 °F 73% 30.21 in 7.0 mi NE 11.5 mph - N/A   Scattered Clouds
9:43 PM 73.4 °F 64.4 °F 73% 30.18 in 7.0 mi NE 8.1 mph - N/A   Scattered Clouds
10:41 PM 73.4 °F 64.4 °F 73% 30.18 in 7.0 mi ENE 9.2 mph - N/A   Partly Cloudy
11:47 PM 73.4 °F 64.4 °F 73% 30.12 in 7.0 mi NE 10.4 mph - N/A   Partly Cloudy